Powrót do katalogu

STARLINK-34796

AktywnyŁącznośćVLEO
NORAD 65205·PAYLOAD·🇺🇸 United States

Wystrzelony Aug 14, 2025 z Cape Canaveral Space Force Station

Loading…

Następne Przeloty (najbliższe 24 godziny)

TLE

ŚwieżeSource: CelesTrak SupGP

Epoka: Sep 15, 2026, 03:42 UTC

1 65205C 25176H   26258.15465278  .00077665  00000+0  22946-2 0  2583
2 65205  53.1589 348.7948 0001098  92.6935 252.2841 15.34352305    12

Śledź STARLINK-34796 w czasie rzeczywistym z AllMySat

Download on the App Store